Regional Weather Roundup
Issued by NWS State College, PA

Home | Current Version | Previous Version | Text Only | Print | Product List | Glossary On
Versions: 1 2 3 4 5 6 7 8 9 10 11 12 13 14 15 16 17 18 19 20 21 22 23 24 25 26 27 28 29 30 31 32 33 34 35 36 37 38 39 40 41 42 43 44 45 46 47 48 49 50
000
ASUS41 KCTP 232210
RWRCTP

REGIONAL WEATHER ROUNDUP
NATIONAL WEATHER SERVICE STATE COLLEGE PA
600 PM EDT TUE SEP 23 2014

Note: "fair" indicates few or no clouds below 12,000 feet with no
significant weather and/or obstructions to visibility.

* = STATION THAT DOES NOT REPORT PRECIPITATION /E.G. RAIN...SNOW...ETC/
    THUNDER OR FOG.

PAZ002>004-007>009-013>016-020>023-029>032-232300-
WESTERN PENNSYLVANIA

CITY           SKY/WX    TMP DP  RH WIND       PRES   REMARKS
ERIE           SUNNY     65  50  58 VRB3      30.36S
MEADVILLE      SUNNY     66  47  50 NW3       30.35S
FRANKLIN*      SUNNY     64  46  52 NE3       30.37R
NEW CASTLE       N/A     66  47  50 CALM      30.35S
BEAVER COUNTY  SUNNY     66  46  48 N5        30.33F
BUTLER*        SUNNY     64  46  52 E3        30.36S
PITTSBURGH INT MOSUNNY   67  44  43 E6        30.34R
PITTSBURGH     SUNNY     67  42  40 N5        30.33R
INDIANA*       SUNNY     66  48  52 CALM      30.38S
LATROBE        SUNNY     66  46  48 NE7       30.34S
WASHINGTON CO* SUNNY     66  43  42 E5        30.35S
$$

PAZ004>006-010>012-017>019-024>028-033>037-041-042-045-046-049>053-232300-
CENTRAL PENNSYLVANIA

CITY           SKY/WX    TMP DP  RH WIND       PRES   REMARKS
BRADFORD       SUNNY     65  45  48 W5        30.36R
DUBOIS         SUNNY     65  45  48 CALM      30.34S
CLEARFIELD     SUNNY     66  48  52 CALM      30.35R
JOHNSTOWN      SUNNY     65  43  44 N7        30.34S
ALTOONA        SUNNY     66  44  45 NE6       30.34S
STATE COLLEGE  SUNNY     66  48  52 CALM      30.35R
WILLIAMSPORT   SUNNY     69  48  47 S3        30.32S
SELINSGROVE    SUNNY     69  48  47 CALM      30.33S
FT INDIANTOWN  SUNNY     71  46  41 N2        30.32S
CAPITAL CITY   SUNNY     70  45  40 NW7       30.32R
HARRISBURG     MOSUNNY   70  54  56 CALM      30.30S
YORK           SUNNY     70  45  40 N6        30.32S
$$

PAZ038>040-043-044-047-048-054-055-060>062-067>071-232300-
EASTERN PENNSYLVANIA

CITY           SKY/WX    TMP DP  RH WIND       PRES   REMARKS
SCRANTON       SUNNY     69  46  43 NW5       30.33S
MOUNT POCONO   CLEAR     66  45  46 NW7       30.34S
ALLENTOWN      CLEAR     72  42  34 CALM      30.31S
QUAKERTOWN*    CLEAR     70  43  37 N3        30.33R
READING        SUNNY     71  43  36 CALM      30.30S
LANCASTER      SUNNY     69  43  38 N5        30.32R
COATESVILLE    CLEAR     66  46  48 CALM      30.33S
POTTSTOWN      SUNNY     69  44  40 SW3       30.33R
BLUE BELL      CLEAR     72  43  35 CALM      30.31R
DOYLESTOWN     CLEAR     71  44  37 CALM      30.31R
WILLOW GROVE   NOT AVBL
NORTH PHILA    PTCLDY    71  40  32 SE6       30.33R
PHILADELPHIA   MOCLDY    71  42  35 SE3       30.32R
$$


USA.gov is the U.S. government's official web portal to all federal, state and local government web resources and services.